Waarnemingen

Advertentie
Mijn weer
Chalons-Vatry Airport, Frankrijk (7166): temperatuur & dauwpunt: 14.02.2019 15:00:00 - 20.02.2019 15:00:00 (CET)Chalons-Vatry Airport, Frankrijk (7166): windsnelheid & windstoten: 14.02.2019 15:00:00 - 20.02.2019 15:00:00 (CET)Chalons-Vatry Airport, Frankrijk (7166): windrichting: 14.02.2019 15:00:00 - 20.02.2019 15:00:00 (CET)Chalons-Vatry Airport, Frankrijk (7166): luchtdruk: 14.02.2019 15:00:00 - 20.02.2019 15:00:00 (CET)Chalons-Vatry Airport, Frankrijk (7166): zicht: 14.02.2019 15:00:00 - 20.02.2019 15:00:00 (CET)Chalons-Vatry Airport, Frankrijk (7166): neerslag: 14.02.2019 15:00:00 - 20.02.2019 15:00:00 (CET)
Datum & Tijd tt [°C] td [°C] ff [km/u] ff [kn] fx [km/u] fx [kn] dd ppp [hPa] vv [km] rr [mm]
20.02.2019 15:00:00 - - - - - - - - - -
20.02.2019 14:00:00 - - - - - - - - - -
20.02.2019 13:00:00 9,7 7,6 5 3 10 5 - 1025,2 10 0,0
20.02.2019 12:00:00 7,1 6,8 4 2 8 4 Z 1025,5 5 0,0
20.02.2019 11:00:00 4,5 4,2 2 1 9 5 - 1025,5 3,5 0,0
20.02.2019 10:00:00 4,4 4,1 5 3 9 5 Z 1025,0 2,6 0,0
20.02.2019 09:00:00 3,3 3,0 9 5 12 7 ZZO 1024,7 0,9 0,0
20.02.2019 08:00:00 2,0 1,7 8 4 10 5 Z 1024,2 0,3 0,0
20.02.2019 07:00:00 1,5 1,2 8 4 8 5 ZZO 1023,7 0,1 0,0
20.02.2019 06:00:00 2,0 1,7 5 3 8 4 ZO 1023,6 0,4 0,0
20.02.2019 05:00:00 2,6 2,2 5 3 10 5 Z 1023,2 2,9 0,0
20.02.2019 04:00:00 2,8 2,1 9 5 11 6 ZZO 1023,3 6 0,0
20.02.2019 03:00:00 3,2 2,3 9 5 13 7 ZZO 1023,6 10 0,0
20.02.2019 02:00:00 3,8 2,9 9 5 12 6 ZZO 1023,7 8 0,0
20.02.2019 01:00:00 4,1 2,8 10 5 11 6 ZZO 1023,6 11 0,0
20.02.2019 00:00:00 4,2 2,7 7 4 10 5 ZZO 1023,5 10 0,0
19.02.2019 23:00:00 4,5 3,2 8 5 9 5 ZZO 1023,5 10 0,0
19.02.2019 22:00:00 4,6 3,3 7 4 8 4 ZZO 1023,6 8 0,0
19.02.2019 21:00:00 4,8 3,3 5 3 8 4 Z 1023,6 8 0,0
19.02.2019 20:00:00 5,7 3,5 5 3 8 4 Z 1023,3 10 0,0
19.02.2019 19:00:00 6,3 4,1 6 3 8 4 ZZW 1023,0 13 0,0
19.02.2019 18:00:00 8,2 4,6 5 3 11 6 ZZW 1022,4 10 0,0
19.02.2019 17:00:00 10,5 4,6 8 4 16 8 ZW 1022,4 10 0,0
19.02.2019 16:00:00 9,7 4,9 11 6 17 9 ZW 1022,8 18 0,0
19.02.2019 15:00:00 9,5 5,1 9 5 18 10 ZW 1022,9 10 0,0
19.02.2019 14:00:00 9,0 4,8 16 9 22 12 W 1023,3 14 0,0
19.02.2019 13:00:00 9,0 5,7 11 6 18 10 ZW 1023,4 17 0,0
19.02.2019 12:00:00 8,0 6,5 10 6 16 9 WZW 1023,8 8 0,0
19.02.2019 11:00:00 7,4 6,5 9 5 14 8 ZW 1023,5 7 0,0
19.02.2019 10:00:00 6,3 5,7 9 5 12 6 ZW 1023,4 4,2 0,0
19.02.2019 09:00:00 5,7 5,1 5 3 9 5 ZW 1022,7 3,4 0,0
19.02.2019 08:00:00 5,1 4,4 2 1 7 4 W 1021,7 2,0 0,2
19.02.2019 07:00:00 5,5 4,8 5 3 18 10 NW 1021,2 4,0 0,2
19.02.2019 06:00:00 5,7 4,5 15 8 21 11 NW 1020,9 5 0,0
19.02.2019 05:00:00 5,5 2,5 13 7 16 9 WZW 1020,2 15 0,0
19.02.2019 04:00:00 5,2 2,4 11 6 15 8 WZW 1019,9 10 0,0
19.02.2019 03:00:00 4,7 1,7 9 5 13 7 ZW 1019,7 10 0,0
19.02.2019 02:00:00 4,6 1,3 9 5 13 7 ZW 1019,5 10 0,0
19.02.2019 01:00:00 4,1 1,0 9 5 14 8 ZW 1019,6 10 0,0
19.02.2019 00:00:00 4,2 0,7 9 5 26 14 ZW 1019,1 39 0,0
18.02.2019 23:00:00 5,6 0,9 11 6 16 9 Z 1018,5 10 0,0
18.02.2019 22:00:00 5,5 1,0 11 6 17 9 Z 1018,6 10 0,0
18.02.2019 21:00:00 5,7 0,8 13 7 19 10 Z 1018,4 10 0,0
18.02.2019 20:00:00 5,9 1,4 13 7 21 12 Z 1018,2 37 0,0
18.02.2019 19:00:00 6,2 2,1 13 7 16 9 Z 1018,0 10 0,0
18.02.2019 18:00:00 8,4 3,2 15 8 22 12 ZZO 1017,4 10 0,0
18.02.2019 17:00:00 12,3 2,7 16 9 28 15 Z 1017,6 10 0,0
18.02.2019 16:00:00 13,5 2,1 18 10 30 16 Z 1017,7 10 0,0
18.02.2019 15:00:00 13,6 2,8 22 12 31 17 ZZW 1017,7 10 0,0
18.02.2019 14:00:00 13,3 3,6 23 12 35 19 Z 1018,4 23 0,0
18.02.2019 13:00:00 11,6 2,1 26 14 38 20 ZZW 1019,3 27 0,0
18.02.2019 12:00:00 10,4 2,0 20 11 30 16 ZZW 1019,7 33 0,0
18.02.2019 11:00:00 8,4 2,0 18 10 30 16 Z 1019,9 10 0,0
18.02.2019 10:00:00 6,3 1,6 21 11 27 15 Z 1020,2 39 0,0
18.02.2019 09:00:00 3,7 0,0 21 11 25 13 ZZO 1020,4 10 0,0
18.02.2019 08:00:00 1,5 -1,4 16 9 21 11 Z 1020,5 10 0,0
18.02.2019 07:00:00 2,0 -1,1 16 9 22 12 ZZO 1020,4 10 0,0
18.02.2019 06:00:00 1,7 -1,2 16 9 20 11 Z 1020,6 10 0,0
18.02.2019 05:00:00 2,5 -0,6 15 8 23 12 ZZO 1020,4 10 0,0
18.02.2019 04:00:00 2,6 -0,9 16 9 19 10 ZZO 1020,6 10 0,0
18.02.2019 03:00:00 3,5 -0,9 12 6 17 9 Z 1021,0 28 0,0
18.02.2019 02:00:00 5,1 -0,5 12 7 18 10 ZZO 1021,0 32 0,0
18.02.2019 01:00:00 5,4 -0,4 13 7 21 11 ZZO 1021,0 10 0,0
18.02.2019 00:00:00 6,1 -1,6 13 7 20 11 ZZO 1021,1 60 0,0
17.02.2019 23:00:00 4,6 -1,6 15 8 22 12 ZZO 1021,4 60 0,0
17.02.2019 22:00:00 5,9 -2,0 11 6 19 10 ZZO 1021,6 60 0,0
17.02.2019 21:00:00 7,8 -1,2 9 5 13 7 ZZO 1021,2 60 0,0
17.02.2019 20:00:00 9,6 0,5 9 5 11 6 ZZO 1021,1 58 0,0
17.02.2019 19:00:00 9,8 2,2 9 5 12 6 Z 1021,0 10 0,0
17.02.2019 18:00:00 12,6 2,4 6 4 13 7 ZZO 1020,5 60 0,0
17.02.2019 17:00:00 15,5 3,0 11 6 21 11 ZZW 1020,4 10 0,0
17.02.2019 16:00:00 16,0 3,1 17 9 26 14 Z 1020,7 33 0,0
17.02.2019 15:00:00 16,0 0,9 18 10 27 14 Z 1021,2 26 0,0
17.02.2019 14:00:00 15,4 0,0 17 9 28 15 Z 1021,5 21 0,0
17.02.2019 13:00:00 13,9 3,1 21 11 26 14 Z 1022,0 10 0,0
17.02.2019 12:00:00 11,8 2,0 15 8 23 12 Z 1022,8 10 0,0
17.02.2019 11:00:00 9,9 2,0 21 11 27 15 Z 1022,8 10 0,0
17.02.2019 10:00:00 7,1 1,6 13 7 26 14 Z 1023,1 18 0,0
17.02.2019 09:00:00 4,5 0,4 22 12 27 15 Z 1023,2 10 0,0
17.02.2019 08:00:00 2,2 -0,7 12 6 19 10 Z 1023,4 13 0,0
17.02.2019 07:00:00 2,3 -0,1 9 5 21 11 Z 1023,2 11 0,0
17.02.2019 06:00:00 3,4 0,1 14 7 21 11 ZZO 1023,4 13 0,0
17.02.2019 05:00:00 2,8 -0,3 13 7 18 10 ZZO 1023,5 10 0,0
17.02.2019 04:00:00 1,9 0,3 4 2 8 5 - 1024,1 8 0,0
17.02.2019 03:00:00 2,6 0,7 0 0 10 6 N 1024,5 10 0,0
17.02.2019 02:00:00 3,1 0,7 9 5 18 10 OZO 1024,5 10 0,0
17.02.2019 01:00:00 5,5 1,6 11 6 16 9 ZO 1024,7 10 0,0
17.02.2019 00:00:00 5,7 1,4 13 7 15 8 ZO 1025,1 14 0,0
16.02.2019 23:00:00 5,3 0,5 12 6 14 8 ZO 1025,7 17 0,0
16.02.2019 22:00:00 7,6 -1,4 8 4 13 7 ZZO 1025,7 31 0,0
16.02.2019 21:00:00 7,1 2,0 13 7 15 8 ZO 1025,9 17 0,0
16.02.2019 20:00:00 6,9 3,5 9 5 16 9 ZZO 1026,2 10 0,0
16.02.2019 19:00:00 8,4 3,6 11 6 12 7 ZZO 1026,4 10 0,0
16.02.2019 18:00:00 10,5 4,6 8 4 9 5 ZZO 1026,0 17 0,0
16.02.2019 17:00:00 14,4 4,9 4 2 10 5 ZZW 1025,9 10 0,0
16.02.2019 16:00:00 14,9 4,3 7 4 12 6 ZW 1026,5 13 0,0
16.02.2019 15:00:00 14,4 4,7 9 5 18 10 ZW 1026,9 10 0,0
16.02.2019 14:00:00 14,0 5,6 9 5 18 10 ZZW 1027,3 10 0,0
16.02.2019 13:00:00 13,0 5,2 11 6 17 9 ZZW 1027,8 10 0,0
16.02.2019 12:00:00 11,4 4,6 8 4 14 8 ZZW 1028,2 10 0,0
16.02.2019 11:00:00 8,8 3,2 8 4 14 8 Z 1028,5 10 0,0
16.02.2019 10:00:00 6,6 1,7 8 4 16 9 Z 1028,5 10 0,0
16.02.2019 09:00:00 3,1 0,0 15 8 16 9 ZZO 1028,3 15 0,0
16.02.2019 08:00:00 1,9 -1,0 11 6 15 8 Z 1028,3 10 0,0
16.02.2019 07:00:00 1,8 -1,1 11 6 13 7 Z 1027,8 10 0,0
16.02.2019 06:00:00 3,1 -0,7 9 5 19 10 Z 1027,7 10 0,0
16.02.2019 05:00:00 2,4 -0,7 16 9 21 11 Z 1027,8 10 0,0
16.02.2019 04:00:00 3,0 -0,6 16 9 20 11 Z 1027,7 10 0,0
16.02.2019 03:00:00 3,6 -0,2 15 8 19 10 Z 1027,8 10 0,0
16.02.2019 02:00:00 3,4 -0,3 15 8 18 10 ZZO 1027,9 10 0,0
16.02.2019 01:00:00 5,7 0,2 8 4 12 6 ZZO 1027,9 10 0,0
16.02.2019 00:00:00 6,1 0,6 11 6 16 8 ZZO 1027,5 10 0,0
15.02.2019 23:00:00 6,5 0,8 9 5 17 9 ZZO 1027,6 10 0,0
15.02.2019 22:00:00 5,8 1,1 15 8 17 9 ZO 1027,9 10 0,0
15.02.2019 21:00:00 8,7 2,3 10 6 13 7 ONO 1028,0 35 0,0
15.02.2019 20:00:00 9,1 3,1 9 5 13 7 ONO 1028,1 10 0,0
15.02.2019 19:00:00 10,5 4,8 11 6 13 7 O 1028,1 10 0,0
15.02.2019 18:00:00 11,1 4,8 11 6 14 8 O 1028,0 10 0,0
15.02.2019 17:00:00 14,6 4,6 11 6 16 9 OZO 1027,8 10 0,0
15.02.2019 16:00:00 15,4 4,4 13 7 16 9 OZO 1028,4 10 0,0
15.02.2019 15:00:00 14,7 4,7 9 5 16 9 O 1029,0 10 0,0
15.02.2019 14:00:00 13,5 5,6 10 5 19 10 O 1029,7 19 0,0
15.02.2019 13:00:00 12,7 4,4 11 6 19 10 OZO 1030,3 10 0,0
15.02.2019 12:00:00 9,6 3,8 12 7 19 10 O 1031,4 18 0,0
15.02.2019 11:00:00 6,5 2,2 9 5 15 8 ONO 1031,8 10 0,0
15.02.2019 10:00:00 2,2 0,1 10 5 13 7 NO 1032,4 11 0,0
15.02.2019 09:00:00 -0,1 -1,4 5 3 13 7 N 1032,6 10 0,0
15.02.2019 08:00:00 -0,4 -1,8 9 5 19 11 NO 1032,3 10 0,0
15.02.2019 07:00:00 0,2 -1,7 14 8 18 10 ONO 1032,1 13 0,0
15.02.2019 06:00:00 1,8 -1,1 15 8 17 9 O 1032,2 10 0,0
15.02.2019 05:00:00 1,9 -0,7 12 7 19 11 O 1032,1 13 0,0
15.02.2019 04:00:00 0,7 -0,6 13 7 16 9 NO 1032,3 10 0,0
15.02.2019 03:00:00 2,0 -0,4 8 4 14 8 ONO 1032,3 18 0,0
15.02.2019 02:00:00 4,8 -0,4 15 8 21 12 OZO 1032,5 24 0,0
15.02.2019 01:00:00 3,9 0,2 21 11 26 14 ZO 1032,6 10 0,0
15.02.2019 00:00:00 4,3 0,6 22 12 26 14 OZO 1032,8 10 0,0
14.02.2019 23:00:00 4,4 0,7 22 12 26 14 OZO 1032,9 19 0,0
14.02.2019 22:00:00 4,6 1,3 18 10 24 13 O 1032,9 10 0,0
14.02.2019 21:00:00 4,7 2,4 15 8 20 11 O 1032,8 12 0,0
14.02.2019 20:00:00 6,3 2,6 9 5 14 7 NO 1032,9 10 0,0
14.02.2019 19:00:00 7,9 3,0 13 7 17 9 NO 1032,7 10 0,0
14.02.2019 18:00:00 8,4 3,6 11 6 15 8 ONO 1032,6 17 0,0
14.02.2019 17:00:00 10,3 4,2 9 5 16 9 ONO 1032,8 10 0,0
14.02.2019 16:00:00 11,5 4,7 13 7 19 10 O 1033,1 18 0,0
14.02.2019 15:00:00 11,8 3,8 9 5 16 9 O 1033,7 10 0,0

tt = temperatuur
td = dauwpunt
ff = windsnelheid
fx = windstoten
dd = windrichting
ppp = luchtdruk
vv = zicht
rr = neerslag

Weerstations in de omgeving